This is the latest recevied weather packets stored in our database for station/object N7WSS. If no packets are shown the sender has not sent any weather packets the latest 10 day(s).
| Time | Temp. | Humidity | Pressure | Rain* | Wind** | Luminosity | Snow |
|---|---|---|---|---|---|---|---|
| 1777245378 | 25° C | 28% | 1007.9 hPa | 0 mm | - | - | - |
| 1777245078 | 24.44° C | 28% | 1007.9 hPa | 0 mm | - | - | - |
| 1777244774 | 23.33° C | 29% | 1007.9 hPa | 0 mm | - | - | - |
| 1777244470 | 23.33° C | 29% | 1008 hPa | 0 mm | - | - | - |
| 1777244166 | 25° C | 28% | 1007.9 hPa | 0 mm | - | - | - |
| 1777243866 | 24.44° C | 27% | 1007.8 hPa | 0 mm | - | - | - |
| 1777243562 | 24.44° C | 28% | 1007.9 hPa | 0 mm | - | - | - |
| 1777243257 | 25.56° C | 27% | 1007.8 hPa | 0 mm | - | - | - |
| 1777242953 | 24.44° C | 27% | 1007.9 hPa | 0 mm | - | - | - |
| 1777242651 | 23.89° C | 28% | 1008 hPa | 0 mm | - | - | - |
| 1777242347 | 23.89° C | 28% | 1008 hPa | 0 mm | - | - | - |
| 1777242044 | 25.56° C | 26% | 1008.1 hPa | 0 mm | - | - | - |
| 1777241741 | 25.56° C | 26% | 1008.1 hPa | 0 mm | - | - | - |
| 1777241438 | 25.56° C | 27% | 1008 hPa | 0 mm | - | - | - |
| 1777241136 | 25.56° C | 26% | 1008 hPa | 0 mm | - | - | - |
| 1777240834 | 24.44° C | 27% | 1008 hPa | 0 mm | - | - | - |
| 1777240531 | 23.89° C | 29% | 1008.2 hPa | 0 mm | - | - | - |
| 1777240228 | 23.89° C | 29% | 1008.2 hPa | 0 mm | - | - | - |
| 1777239926 | 25° C | 27% | 1008.2 hPa | 0 mm | - | - | - |
| 1777239624 | 24.44° C | 27% | 1008.2 hPa | 0 mm | - | - | - |
| 1777239320 | 25.56° C | 26% | 1008.2 hPa | 0 mm | - | - | - |
| 1777239017 | 25° C | 27% | 1008.3 hPa | 0 mm | - | - | - |
| 1777238714 | 23.89° C | 27% | 1008.4 hPa | 0 mm | - | - | - |
| 1777238410 | 25° C | 28% | 1008.7 hPa | 0 mm | - | - | - |
| 1777238107 | 24.44° C | 28% | 1008.7 hPa | 0 mm | - | - | - |
* Rain latest hour (hover to see other rain measurements)
** Current wind speed in m/s (hover to see current wind gust speed)